Back to catalog

STARLINK-5571

AliveCommunicationsVLEO
NORAD 55380·PAYLOAD·🇺🇸 United States

Launched Jan 26, 2023 from Cape Canaveral Space Force Station

Loading…

Next Passes (next 24 hours)

TLE

FreshSource: CelesTrak SupGP

Epoch: Sep 15, 2026, 01:37 UTC

1 55380C 23013BB  26258.06784722  .00029167  00000+0  10566-2 0  2581
2 55380  42.9999 317.9908 0001401 263.6853 160.7260 15.27558814    10

Track STARLINK-5571 in real time with AllMySat

Download on the App Store